Regional Weather Roundup
Issued by NWS

Home | Current Version | Previous Version | Text Only | Print | Product List | Glossary Off
Versions: 1 2 3 4 5 6 7 8 9 10 11 12 13 14 15 16 17 18 19 20 21 22 23 24 25 26 27

000
ASUS45 KCYS 250110
RWRWY

WYOMING REGIONAL WEATHER ROUNDUP
NATIONAL WEATHER SERVICE CHEYENNE WY
700 PM MDT MON JUL 24 2017

NOTE:  "FAIR" INDICATES FEW OR NO CLOUDS BELOW 12,000 FEET
WITH NO SIGNIFICANT WEATHER AND/OR OBSTRUCTIONS TO VISIBILITY.

WYZ001-250200-
YELLOWSTONE NATIONAL PARK

CITY           SKY/WX    TMP DP  RH WIND       PRES   REMARKS
LK YELLOWSTONE   N/A     61  44  53 CALM      30.30F
W YELLOWSTONE  NOT AVBL

$$
WYZ002>013-054>058-071-098>099-250200-
NORTHERN WYOMING

CITY           SKY/WX    TMP DP  RH WIND       PRES   REMARKS
JACKSON        SUNNY     68  37  32 NW13      30.10S
CODY           FAIR      84  41  21 N14       29.98R
GREYBULL       FAIR      98  32  10 E5        29.81S HX  92
WORLAND        FAIR      97  35  11 NE13      29.81F HX  92
SHERIDAN       FAIR      92  47  21 NE10      29.88S
BUFFALO        FAIR      88  41  19 NW10      29.96S
GILLETTE       FAIR      95  36  12 NE9       29.88F HX  90
HULETT         FAIR      93  36  13 CALM      29.90S
NEWCASTLE      FAIR      95  32  11 E5        29.88F HX  90

$$
WYZ014>020-022>026-101>103-250200-
CENTRAL WYOMING

CITY           SKY/WX    TMP DP  RH WIND       PRES   REMARKS
BIG PINEY      FAIR      78  44  29 SW8       30.15F
PINEDALE       FAIR      81  32  17 N5        30.16F
DUBOIS         FAIR      79  27  14 NW12      30.14F
LANDER         FAIR      90  35  14 W9        29.99S
RIVERTON       FAIR      92  28  10 NW8       29.97F
CASPER         FAIR      91  30  11 VRB3G22   29.97F
DOUGLAS        FAIR      90  31  12 SW7       29.95S

$$
WYZ021-027>030-104>119-250200-
SOUTHERN WYOMING

CITY           SKY/WX    TMP DP  RH WIND       PRES   REMARKS
EVANSTON       FAIR      82  39  21 W9        30.15S
KEMMERER         N/A     81  28  15 N10       30.18R
FORT BRIDGER   FAIR      82  36  18 S7        30.17S
ROCK SPRINGS   FAIR      85  33  15 SW10      30.13S
RAWLINS        FAIR      85  33  15 W8        30.12F
SARATOGA       FAIR      86  36  16 NW10G18   30.15S
LARAMIE        PTSUNNY   79  34  19 E6        30.17F
CHEYENNE       FAIR      87  37  17 NW6       30.09F
TORRINGTON     FAIR      92  45  19 SE5       29.88S
PINE BLUFFS    FAIR      88  34  14 W12       30.00S

$$




USA.gov is the U.S. government's official web portal to all federal, state and local government web resources and services.